| time (UTC) | temp F | wind direction | speed MPH | gust MPH | rain 1hr in | rain 24hr in | rain mn in | humidity % | barometer mb |
| 20260906002321 | 64 | 166 | 0.0 | 1.0 | 0.00 | 0.02 | 0.02 | 99 | 1010.5 |
| 20260906001817 | 65 | 242 | 0.0 | 0.0 | 0.00 | 0.02 | 0.02 | 98 | 1010.5 |
| 20260906001312 | 65 | 242 | 0.0 | 0.0 | 0.00 | 0.02 | 0.02 | 98 | 1010.4 |
| 20260906000807 | 65 | 266 | 0.0 | 1.0 | 0.00 | 0.02 | 0.02 | 98 | 1010.3 |
| 20260906000303 | 65 | 92 | 0.0 | 2.0 | 0.00 | 0.02 | 0.02 | 98 | 1010.1 |
| 20260905235757 | 66 | 31 | 0.0 | 2.0 | 0.00 | 0.02 | 0.02 | 98 | 1010.0 |
| 20260905235256 | 66 | 97 | 2.0 | 3.0 | 0.00 | 0.02 | 0.02 | 98 | 1010.2 |
| 20260905234752 | 66 | 159 | 1.0 | 2.0 | 0.00 | 0.02 | 0.02 | 98 | 1010.1 |
| 20260905234247 | 66 | 167 | 1.0 | 2.0 | 0.00 | 0.02 | 0.02 | 98 | 1009.9 |
| 20260905233742 | 66 | 165 | 2.0 | 2.0 | 0.00 | 0.02 | 0.02 | 98 | 1009.8 |
| 20260905233242 | 66 | 125 | 0.0 | 1.0 | 0.00 | 0.02 | 0.02 | 97 | 1009.5 |
| 20260905232736 | 66 | 157 | 0.0 | 1.0 | 0.00 | 0.02 | 0.02 | 97 | 1009.7 |
| 20260905232232 | 67 | 131 | 0.0 | 2.0 | 0.00 | 0.02 | 0.02 | 97 | 1009.5 |
| 20260905231728 | 67 | 115 | 0.0 | 1.0 | 0.00 | 0.02 | 0.02 | 97 | 1009.7 |
| 20260905231223 | 67 | 122 | 1.0 | 2.0 | 0.00 | 0.02 | 0.02 | 96 | 1009.7 |
| 20260905230719 | 68 | 127 | 1.0 | 2.0 | 0.00 | 0.02 | 0.02 | 96 | 1009.7 |
| 20260905230217 | 68 | 150 | 0.0 | 1.0 | 0.00 | 0.02 | 0.02 | 96 | 1009.5 |
| 20260905225716 | 68 | 107 | 0.0 | 1.0 | 0.00 | 0.02 | 0.02 | 95 | 1009.4 |
| 20260905225212 | 69 | 229 | 0.0 | 0.0 | 0.00 | 0.02 | 0.02 | 95 | 1009.6 |
| 20260905224711 | 69 | 229 | 0.0 | 0.0 | 0.00 | 0.02 | 0.02 | 94 | 1009.7 |
| 20260905224206 | 69 | 229 | 0.0 | 0.0 | 0.00 | 0.02 | 0.02 | 95 | 1009.5 |
| 20260905223703 | 69 | 229 | 0.0 | 0.0 | 0.00 | 0.02 | 0.02 | 95 | 1009.6 |
| 20260905223159 | 69 | 162 | 0.0 | 0.0 | 0.00 | 0.02 | 0.02 | 94 | 1009.5 |
| 20260905222654 | 69 | 162 | 0.0 | 0.0 | 0.00 | 0.02 | 0.02 | 94 | 1009.5 |
| 20260905222148 | 69 | 162 | 0.0 | 0.0 | 0.00 | 0.02 | 0.02 | 94 | 1009.5 |
| 20260905221644 | 70 | 162 | 0.0 | 0.0 | 0.00 | 0.02 | 0.02 | 93 | 1009.4 |
| 20260905221141 | 70 | 162 | 0.0 | 0.0 | 0.00 | 0.02 | 0.02 | 93 | 1009.3 |
| 20260905220636 | 69 | 162 | 0.0 | 1.0 | 0.00 | 0.02 | 0.02 | 92 | 1009.4 |
| 20260905220132 | 70 | 235 | 0.0 | 1.0 | 0.00 | 0.02 | 0.02 | 91 | 1009.4 |
| 20260905215631 | 70 | 264 | 0.0 | 1.0 | 0.00 | 0.02 | 0.02 | 90 | 1009.1 |
| 20260905215127 | 70 | 160 | 0.0 | 0.0 | 0.00 | 0.02 | 0.02 | 88 | 1009.2 |
| 20260905214623 | 70 | 189 | 0.0 | 0.0 | 0.00 | 0.02 | 0.02 | 87 | 1009.3 |
| 20260905214123 | 71 | 137 | 0.0 | 1.0 | 0.00 | 0.02 | 0.02 | 85 | 1009.1 |
| 20260905213619 | 71 | 66 | 0.0 | 1.0 | 0.00 | 0.02 | 0.02 | 84 | 1009.0 |
| 20260905213114 | 72 | 46 | 1.0 | 2.0 | 0.00 | 0.02 | 0.02 | 83 | 1009.2 |
| 20260905212609 | 72 | 50 | 0.0 | 0.0 | 0.00 | 0.02 | 0.02 | 83 | 1009.1 |
| 20260905212108 | 72 | 92 | 0.0 | 2.0 | 0.00 | 0.02 | 0.02 | 85 | 1009.0 |
| 20260905211604 | 73 | 224 | 1.0 | 2.0 | 0.00 | 0.02 | 0.02 | 83 | 1009.0 |
| 20260905211059 | 73 | 54 | 4.0 | 5.0 | 0.00 | 0.02 | 0.02 | 76 | 1008.8 |
| 20260905210555 | 74 | 43 | 3.0 | 3.0 | 0.00 | 0.02 | 0.02 | 75 | 1008.7 |
| 20260905210050 | 75 | 41 | 2.0 | 4.0 | 0.00 | 0.02 | 0.02 | 77 | 1008.7 |
| 20260905205549 | 74 | 111 | 2.0 | 7.0 | 0.00 | 0.02 | 0.02 | 79 | 1008.9 |
| 20260905205049 | 73 | 110 | 0.0 | 3.0 | 0.00 | 0.02 | 0.02 | 85 | 1008.6 |
| 20260905204543 | 73 | 125 | 0.0 | 1.0 | 0.00 | 0.02 | 0.02 | 85 | 1008.5 |
| 20260905204039 | 72 | 166 | 0.0 | 1.0 | 0.00 | 0.02 | 0.02 | 87 | 1008.6 |
| 20260905203538 | 73 | 125 | 0.0 | 0.0 | 0.00 | 0.02 | 0.02 | 87 | 1008.7 |
| 20260905203034 | 73 | 64 | 0.0 | 1.0 | 0.00 | 0.02 | 0.02 | 86 | 1008.6 |
| 20260905202529 | 72 | 91 | 1.0 | 1.0 | 0.00 | 0.02 | 0.02 | 86 | 1008.5 |
| 20260905202024 | 72 | 242 | 0.0 | 1.0 | 0.00 | 0.02 | 0.02 | 87 | 1008.5 |
| 20260905201520 | 72 | 359 | 2.0 | 3.0 | 0.00 | 0.02 | 0.02 | 85 | 1008.6 |
| 20260905201019 | 71 | 162 | 0.0 | 1.0 | 0.00 | 0.02 | 0.02 | 86 | 1008.5 |
| 20260905200515 | 71 | 69 | 2.0 | 2.0 | 0.00 | 0.02 | 0.02 | 86 | 1008.7 |
| 20260905200014 | 71 | 235 | 0.0 | 1.0 | 0.00 | 0.02 | 0.02 | 89 | 1008.4 |
| 20260905195508 | 71 | 125 | 0.0 | 1.0 | 0.00 | 0.02 | 0.02 | 89 | 1008.4 |
| 20260905195004 | 71 | 46 | 0.0 | 2.0 | 0.00 | 0.02 | 0.02 | 90 | 1008.5 |
| 20260905194458 | 71 | 189 | 0.0 | 0.0 | 0.00 | 0.02 | 0.02 | 93 | 1008.6 |
| 20260905193957 | 71 | 312 | 0.0 | 2.0 | 0.00 | 0.02 | 0.02 | 94 | 1008.5 |
| 20260905193452 | 70 | 60 | 0.0 | 2.0 | 0.00 | 0.02 | 0.02 | 94 | 1008.3 |
| 20260905192947 | 68 | 162 | 0.0 | 1.0 | 0.00 | 0.02 | 0.02 | 95 | 1008.7 |
| 20260905192442 | 68 | 183 | 0.0 | 2.0 | 0.00 | 0.02 | 0.02 | 95 | 1008.6 |
| 20260905191938 | 68 | 124 | 0.0 | 3.0 | 0.00 | 0.02 | 0.02 | 94 | 1008.6 |
| 20260905191432 | 68 | 151 | 1.0 | 2.0 | 0.00 | 0.02 | 0.02 | 93 | 1008.7 |
| 20260905190931 | 69 | 131 | 1.0 | 2.0 | 0.00 | 0.02 | 0.02 | 92 | 1008.7 |
| 20260905190429 | 69 | 101 | 1.0 | 2.0 | 0.02 | 0.02 | 0.02 | 91 | 1008.8 |
| 20260905185928 | 70 | 132 | 0.0 | 4.0 | 0.07 | 0.02 | 0.02 | 88 | 1008.8 |
| 20260905185423 | 73 | 135 | 2.0 | 3.0 | 0.05 | 0.01 | 0.01 | 80 | 1008.6 |
| 20260905184922 | 75 | 120 | 2.0 | 3.0 | 0.00 | 0.00 | 0.00 | 72 | 1008.3 |
| 20260905184417 | 75 | 71 | 2.0 | 3.0 | 0.00 | 0.00 | 0.00 | 68 | 1008.4 |
| 20260905183915 | 77 | 235 | 0.0 | 5.0 | 0.00 | 0.00 | 0.00 | 67 | 1008.4 |
| 20260905183410 | 77 | 52 | 3.0 | 4.0 | 0.00 | 0.00 | 0.00 | 65 | 1008.4 |
| 20260905182905 | 76 | 77 | 3.0 | 4.0 | 0.00 | 0.00 | 0.00 | 69 | 1008.2 |
| 20260905182404 | 76 | 288 | 5.0 | 5.0 | 0.00 | 0.00 | 0.00 | 70 | 1008.5 |
| 20260905181900 | 75 | 299 | 1.0 | 3.0 | 0.00 | 0.00 | 0.00 | 71 | 1008.7 |
| 20260905181355 | 73 | 238 | 1.0 | 3.0 | 0.00 | 0.00 | 0.00 | 79 | 1008.8 |
| 20260905180854 | 73 | 278 | 2.0 | 3.0 | 0.00 | 0.00 | 0.00 | 77 | 1008.7 |
| 20260905180349 | 74 | 113 | 1.0 | 5.0 | 0.00 | 0.00 | 0.00 | 76 | 1008.6 |
| 20260905175843 | 73 | 144 | 0.0 | 2.0 | 0.00 | 0.00 | 0.00 | 83 | 1008.7 |
| 20260905175338 | 73 | 223 | 2.0 | 4.0 | 0.00 | 0.00 | 0.00 | 80 | 1008.7 |
| 20260905174833 | 71 | 209 | 0.0 | 2.0 | 0.00 | 0.00 | 0.00 | 88 | 1008.9 |
| 20260905174329 | 71 | 279 | 1.0 | 2.0 | 0.00 | 0.00 | 0.00 | 88 | 1008.8 |
| 20260905173824 | 72 | 149 | 0.0 | 1.0 | 0.00 | 0.00 | 0.00 | 86 | 1008.7 |
| 20260905173321 | 73 | 226 | 3.0 | 4.0 | 0.00 | 0.00 | 0.00 | 79 | 1008.9 |
| 20260905172821 | 71 | 209 | 1.0 | 2.0 | 0.00 | 0.00 | 0.00 | 89 | 1008.9 |
| 20260905172318 | 70 | 242 | 0.0 | 0.0 | 0.00 | 0.00 | 0.00 | 88 | 1008.9 |
| 20260905171815 | 70 | 242 | 0.0 | 0.0 | 0.00 | 0.00 | 0.00 | 87 | 1008.7 |
| 20260905171311 | 70 | 242 | 0.0 | 1.0 | 0.00 | 0.00 | 0.00 | 84 | 1008.7 |
| 20260905170807 | 72 | 180 | 0.0 | 2.0 | 0.00 | 0.00 | 0.00 | 80 | 1008.9 |
| 20260905170303 | 73 | 7 | 1.0 | 4.0 | 0.00 | 0.00 | 0.00 | 77 | 1008.9 |
| 20260905165801 | 74 | 87 | 3.0 | 4.0 | 0.00 | 0.00 | 0.00 | 74 | 1008.9 |
| 20260905165258 | 74 | 105 | 1.0 | 2.0 | 0.00 | 0.00 | 0.00 | 72 | 1008.6 |
| 20260905164757 | 74 | 112 | 2.0 | 3.0 | 0.00 | 0.00 | 0.00 | 72 | 1008.7 |
| 20260905164252 | 74 | 242 | 1.0 | 2.0 | 0.00 | 0.00 | 0.00 | 76 | 1008.6 |
| 20260905163748 | 74 | 230 | 0.0 | 5.0 | 0.00 | 0.00 | 0.00 | 73 | 1008.6 |
| 20260905163244 | 74 | 25 | 2.0 | 6.0 | 0.00 | 0.00 | 0.00 | 72 | 1008.7 |
| 20260905162740 | 75 | 142 | 1.0 | 4.0 | 0.00 | 0.00 | 0.00 | 70 | 1008.6 |
| 20260905162239 | 75 | 171 | 1.0 | 5.0 | 0.00 | 0.00 | 0.00 | 69 | 1008.6 |
| 20260905161734 | 75 | 339 | 1.0 | 5.0 | 0.00 | 0.00 | 0.00 | 69 | 1008.6 |
| 20260905161233 | 75 | 91 | 4.0 | 8.0 | 0.00 | 0.00 | 0.00 | 70 | 1008.8 |
| 20260905160731 | 75 | 147 | 4.0 | 6.0 | 0.00 | 0.00 | 0.00 | 71 | 1008.6 |
| 20260905160226 | 75 | 74 | 4.0 | 9.0 | 0.00 | 0.00 | 0.00 | 71 | 1008.7 |
| 20260905155720 | 75 | 253 | 2.0 | 5.0 | 0.00 | 0.00 | 0.00 | 72 | 1008.8 |
| 20260905155219 | 74 | 154 | 1.0 | 7.0 | 0.00 | 0.00 | 0.00 | 73 | 1008.7 |
| 20260905154714 | 74 | 212 | 1.0 | 8.0 | 0.00 | 0.00 | 0.00 | 76 | 1008.6 |
| 20260905154209 | 74 | 67 | 3.0 | 9.0 | 0.00 | 0.00 | 0.00 | 71 | 1008.9 |
| 20260905153705 | 74 | 119 | 2.0 | 4.0 | 0.00 | 0.00 | 0.00 | 72 | 1008.9 |
| 20260905153200 | 74 | 145 | 2.0 | 5.0 | 0.00 | 0.00 | 0.00 | 76 | 1009.1 |
| 20260905152655 | 74 | 83 | 5.0 | 8.0 | 0.00 | 0.00 | 0.00 | 75 | 1008.9 |
| 20260905152150 | 74 | 84 | 3.0 | 15.0 | 0.00 | 0.00 | 0.00 | 73 | 1009.0 |
| 20260905151644 | 74 | 2 | 5.0 | 8.0 | 0.00 | 0.00 | 0.00 | 72 | 1008.9 |
| 20260905151140 | 74 | 33 | 4.0 | 6.0 | 0.00 | 0.00 | 0.00 | 73 | 1009.0 |
| 20260905150635 | 72 | 15 | 1.0 | 5.0 | 0.00 | 0.00 | 0.00 | 74 | 1009.2 |
| 20260905150133 | 71 | 75 | 1.0 | 5.0 | 0.00 | 0.00 | 0.00 | 77 | 1009.2 |
| 20260905145632 | 73 | 180 | 2.0 | 5.0 | 0.00 | 0.00 | 0.00 | 75 | 1009.1 |
| 20260905145131 | 71 | 114 | 2.0 | 4.0 | 0.00 | 0.00 | 0.00 | 76 | 1009.1 |
| 20260905144626 | 71 | 51 | 1.0 | 5.0 | 0.00 | 0.00 | 0.00 | 77 | 1009.0 |
| 20260905144125 | 71 | 211 | 0.0 | 7.0 | 0.00 | 0.00 | 0.00 | 78 | 1008.8 |
| 20260905143620 | 71 | 121 | 2.0 | 7.0 | 0.00 | 0.00 | 0.00 | 77 | 1008.7 |
| 20260905143115 | 71 | 116 | 0.0 | 6.0 | 0.00 | 0.00 | 0.00 | 77 | 1008.9 |
| 20260905142613 | 71 | 135 | 2.0 | 5.0 | 0.00 | 0.00 | 0.00 | 75 | 1008.8 |
| 20260905142108 | 72 | 97 | 3.0 | 8.0 | 0.00 | 0.00 | 0.00 | 75 | 1008.9 |
| 20260905141607 | 72 | 141 | 3.0 | 9.0 | 0.00 | 0.00 | 0.00 | 74 | 1008.8 |
| 20260905141104 | 73 | 155 | 2.0 | 7.0 | 0.00 | 0.00 | 0.00 | 74 | 1008.5 |
| 20260905140559 | 73 | 57 | 4.0 | 7.0 | 0.00 | 0.00 | 0.00 | 71 | 1009.0 |
| 20260905140058 | 73 | 64 | 2.0 | 5.0 | 0.00 | 0.00 | 0.00 | 75 | 1008.9 |
| 20260905135553 | 72 | 83 | 4.0 | 8.0 | 0.00 | 0.00 | 0.00 | 74 | 1008.9 |
| 20260905135054 | 71 | 87 | 2.0 | 8.0 | 0.00 | 0.00 | 0.00 | 75 | 1008.9 |
| 20260905134549 | 72 | 29 | 5.0 | 6.0 | 0.00 | 0.00 | 0.00 | 75 | 1009.1 |
| 20260905134047 | 71 | 175 | 2.0 | 4.0 | 0.00 | 0.00 | 0.00 | 77 | 1009.2 |
| 20260905133543 | 71 | 319 | 1.0 | 6.0 | 0.00 | 0.00 | 0.00 | 77 | 1009.2 |
| 20260905133043 | 71 | 195 | 1.0 | 6.0 | 0.00 | 0.00 | 0.00 | 80 | 1009.0 |
| 20260905132542 | 71 | 283 | 2.0 | 4.0 | 0.00 | 0.00 | 0.00 | 81 | 1009.1 |
| 20260905132037 | 71 | 21 | 0.0 | 4.0 | 0.00 | 0.00 | 0.00 | 80 | 1009.0 |
| 20260905131533 | 71 | 46 | 3.0 | 5.0 | 0.00 | 0.00 | 0.00 | 80 | 1009.1 |
| 20260905131028 | 70 | 352 | 3.0 | 5.0 | 0.00 | 0.00 | 0.00 | 82 | 1009.3 |
| 20260905130527 | 70 | 43 | 2.0 | 4.0 | 0.00 | 0.00 | 0.00 | 82 | 1009.2 |
| 20260905130023 | 71 | 5 | 2.0 | 2.0 | 0.00 | 0.00 | 0.00 | 79 | 1009.4 |
| 20260905125522 | 69 | 335 | 0.0 | 2.0 | 0.00 | 0.00 | 0.00 | 85 | 1009.4 |
| 20260905125017 | 68 | 356 | 2.0 | 5.0 | 0.00 | 0.00 | 0.00 | 87 | 1009.3 |
| 20260905124514 | 66 | 23 | 2.0 | 5.0 | 0.00 | 0.00 | 0.00 | 92 | 1009.5 |
| 20260905124010 | 64 | 315 | 1.0 | 3.0 | 0.00 | 0.00 | 0.00 | 97 | 1009.5 |
| 20260905123505 | 63 | 298 | 2.0 | 4.0 | 0.00 | 0.00 | 0.00 | 99 | 1009.4 |
| 20260905123001 | 62 | 51 | 0.0 | 4.0 | 0.00 | 0.00 | 0.00 | 99 | 1009.4 |
| 20260905122455 | 62 | 280 | 4.0 | 5.0 | 0.00 | 0.00 | 0.00 | 99 | 1009.5 |
| 20260905121950 | 61 | 202 | 0.0 | 3.0 | 0.00 | 0.00 | 0.00 | 99 | 1009.5 |
| 20260905121445 | 60 | 280 | 0.0 | 3.0 | 0.00 | 0.00 | 0.00 | 99 | 1009.6 |
| 20260905120944 | 60 | 17 | 0.0 | 2.0 | 0.00 | 0.00 | 0.00 | 99 | 1009.7 |
| 20260905120439 | 60 | 342 | 0.0 | 3.0 | 0.00 | 0.00 | 0.00 | 99 | 1009.5 |
| 20260905115934 | 59 | 236 | 2.0 | 2.0 | 0.00 | 0.00 | 0.00 | 99 | 1009.3 |
| 20260905115433 | 59 | 27 | 1.0 | 4.0 | 0.00 | 0.00 | 0.00 | 99 | 1009.3 |
| 20260905114923 | 59 | 324 | 0.0 | 3.0 | 0.00 | 0.00 | 0.00 | 99 | 1009.2 |
| 20260905114423 | 58 | 211 | 0.0 | 3.0 | 0.00 | 0.00 | 0.00 | 99 | 1009.3 |
| 20260905113921 | 58 | 272 | 1.0 | 2.0 | 0.00 | 0.00 | 0.00 | 99 | 1009.3 |
| 20260905113417 | 57 | 160 | 0.0 | 1.0 | 0.00 | 0.00 | 0.00 | 99 | 1009.2 |
| 20260905112912 | 57 | 150 | 0.0 | 2.0 | 0.00 | 0.00 | 0.00 | 99 | 1009.1 |
| 20260905112408 | 57 | 183 | 1.0 | 2.0 | 0.00 | 0.00 | 0.00 | 99 | 1009.1 |
| 20260905111903 | 57 | 181 | 0.0 | 2.0 | 0.00 | 0.00 | 0.00 | 99 | 1009.1 |
| 20260905111402 | 57 | 335 | 0.0 | 2.0 | 0.00 | 0.00 | 0.00 | 99 | 1008.8 |
| 20260905110856 | 57 | 199 | 0.0 | 2.0 | 0.00 | 0.00 | 0.00 | 99 | 1008.9 |
| 20260905110350 | 57 | 120 | 1.0 | 2.0 | 0.00 | 0.00 | 0.00 | 99 | 1008.9 |
| 20260905105845 | 57 | 33 | 0.0 | 1.0 | 0.00 | 0.00 | 0.00 | 99 | 1009.1 |
| 20260905105344 | 57 | 193 | 0.0 | 2.0 | 0.00 | 0.00 | 0.00 | 99 | 1008.9 |
| 20260905104839 | 56 | 138 | 0.0 | 2.0 | 0.00 | 0.00 | 0.00 | 99 | 1009.0 |
| 20260905104336 | 57 | 280 | 0.0 | 1.0 | 0.00 | 0.00 | 0.00 | 99 | 1008.6 |
| 20260905103835 | 57 | 207 | 1.0 | 1.0 | 0.00 | 0.00 | 0.00 | 99 | 1008.8 |
| 20260905103330 | 57 | 219 | 1.0 | 3.0 | 0.00 | 0.00 | 0.00 | 99 | 1008.7 |
| 20260905102826 | 57 | 308 | 1.0 | 2.0 | 0.00 | 0.00 | 0.00 | 99 | 1008.5 |
| 20260905102323 | 56 | 286 | 0.0 | 1.0 | 0.00 | 0.00 | 0.00 | 99 | 1008.5 |
| 20260905101823 | 57 | 268 | 0.0 | 2.0 | 0.00 | 0.00 | 0.00 | 99 | 1008.4 |
| 20260905101321 | 57 | 219 | 0.0 | 2.0 | 0.00 | 0.00 | 0.00 | 99 | 1008.6 |
| 20260905100815 | 56 | 9 | 0.0 | 0.0 | 0.00 | 0.00 | 0.00 | 99 | 1008.5 |
| 20260905100311 | 57 | 158 | 0.0 | 1.0 | 0.00 | 0.00 | 0.00 | 99 | 1008.5 |
| 20260905095810 | 57 | 44 | 0.0 | 1.0 | 0.00 | 0.00 | 0.00 | 99 | 1008.6 |
| 20260905095306 | 57 | 92 | 0.0 | 2.0 | 0.02 | 0.00 | 0.00 | 99 | 1008.5 |
| 20260905094800 | 57 | 152 | 1.0 | 2.0 | 0.02 | 0.00 | 0.00 | 99 | 1008.4 |
| 20260905094255 | 57 | 149 | 1.0 | 2.0 | 0.00 | 0.00 | 0.00 | 99 | 1008.4 |
| 20260905093754 | 57 | 235 | 0.0 | 2.0 | 0.00 | 0.00 | 0.00 | 99 | 1008.3 |
| 20260905093250 | 57 | 12 | 0.0 | 2.0 | 0.00 | 0.00 | 0.00 | 99 | 1008.5 |
| 20260905092746 | 57 | 24 | 0.0 | 1.0 | 0.00 | 0.00 | 0.00 | 99 | 1008.4 |
| 20260905092241 | 57 | 196 | 1.0 | 2.0 | 0.00 | 0.00 | 0.00 | 99 | 1008.3 |
| 20260905091740 | 57 | 242 | 0.0 | 3.0 | 0.00 | 0.00 | 0.00 | 99 | 1008.1 |
| 20260905091236 | 57 | 254 | 0.0 | 1.0 | 0.00 | 0.00 | 0.00 | 99 | 1008.2 |
| 20260905090734 | 58 | 246 | 1.0 | 2.0 | 0.00 | 0.00 | 0.00 | 99 | 1008.2 |
| 20260905090230 | 58 | 268 | 1.0 | 2.0 | 0.00 | 0.00 | 0.00 | 99 | 1008.0 |
| 20260905085729 | 58 | 242 | 2.0 | 3.0 | 0.00 | 0.00 | 0.00 | 99 | 1008.1 |
| 20260905085224 | 58 | 144 | 0.0 | 2.0 | 0.00 | 0.00 | 0.00 | 99 | 1008.3 |
| 20260905084719 | 58 | 41 | 0.0 | 1.0 | 0.00 | 0.00 | 0.00 | 99 | 1008.1 |
| 20260905084218 | 58 | 263 | 1.0 | 2.0 | 0.00 | 0.00 | 0.00 | 99 | 1008.1 |
| 20260905083714 | 58 | 9 | 0.0 | 2.0 | 0.00 | 0.00 | 0.00 | 99 | 1008.0 |
| 20260905083209 | 58 | 235 | 0.0 | 2.0 | 0.00 | 0.00 | 0.00 | 99 | 1008.1 |
| 20260905082705 | 58 | 229 | 0.0 | 2.0 | 0.00 | 0.00 | 0.00 | 99 | 1008.1 |
| 20260905082200 | 58 | 247 | 0.0 | 2.0 | 0.00 | 0.00 | 0.00 | 99 | 1008.2 |
| 20260905081655 | 58 | 266 | 0.0 | 2.0 | 0.00 | 0.00 | 0.00 | 99 | 1008.2 |
| 20260905081150 | 58 | 61 | 0.0 | 2.0 | 0.00 | 0.00 | 0.00 | 99 | 1008.2 |
| 20260905080650 | 58 | 277 | 1.0 | 2.0 | 0.00 | 0.00 | 0.00 | 99 | 1008.4 |
| 20260905080149 | 57 | 213 | 0.0 | 1.0 | 0.00 | 0.00 | 0.00 | 99 | 1008.1 |
| 20260905075649 | 58 | 158 | 1.0 | 2.0 | 0.00 | 0.00 | 0.00 | 99 | 1008.2 |
| 20260905075148 | 58 | 144 | 0.0 | 2.0 | 0.00 | 0.00 | 0.00 | 99 | 1008.3 |
| 20260905074647 | 58 | 254 | 0.0 | 1.0 | 0.00 | 0.00 | 0.00 | 99 | 1008.2 |
| 20260905074143 | 58 | 257 | 0.0 | 1.0 | 0.00 | 0.00 | 0.00 | 99 | 1008.3 |
| 20260905073639 | 58 | 241 | 0.0 | 1.0 | 0.00 | 0.00 | 0.00 | 99 | 1008.2 |
| 20260905073134 | 58 | 254 | 0.0 | 1.0 | 0.00 | 0.00 | 0.00 | 99 | 1008.2 |
| 20260905072633 | 58 | 55 | 0.0 | 2.0 | 0.00 | 0.00 | 0.00 | 99 | 1008.4 |
| 20260905072128 | 59 | 189 | 0.0 | 2.0 | 0.00 | 0.00 | 0.00 | 99 | 1008.2 |
| 20260905071625 | 59 | 162 | 0.0 | 1.0 | 0.00 | 0.00 | 0.00 | 99 | 1008.4 |
| 20260905071120 | 59 | 208 | 1.0 | 2.0 | 0.00 | 0.00 | 0.00 | 99 | 1008.2 |
| 20260905070616 | 59 | 144 | 0.0 | 1.0 | 0.00 | 0.00 | 0.00 | 99 | 1008.4 |
| 20260905070112 | 59 | 254 | 0.0 | 1.0 | 0.00 | 0.00 | 0.00 | 99 | 1008.5 |
| 20260905065609 | 59 | 122 | 0.0 | 0.0 | 0.00 | 0.00 | 0.00 | 99 | 1008.5 |
| 20260905065104 | 59 | 106 | 0.0 | 0.0 | 0.00 | 0.00 | 0.00 | 99 | 1008.5 |
| 20260905064559 | 59 | 273 | 0.0 | 1.0 | 0.00 | 0.00 | 0.00 | 99 | 1008.5 |
| 20260905064055 | 59 | 217 | 0.0 | 0.0 | 0.00 | 0.00 | 0.00 | 99 | 1008.4 |
| 20260905063553 | 60 | 264 | 1.0 | 2.0 | 0.00 | 0.00 | 0.00 | 99 | 1008.5 |
| 20260905063050 | 59 | 217 | 0.0 | 1.0 | 0.00 | 0.00 | 0.00 | 99 | 1008.4 |
| 20260905062544 | 60 | 217 | 0.0 | 0.0 | 0.00 | 0.00 | 0.00 | 99 | 1008.5 |
| 20260905062038 | 60 | 192 | 0.0 | 2.0 | 0.00 | 0.00 | 0.00 | 99 | 1008.5 |
| 20260905061534 | 60 | 122 | 0.0 | 0.0 | 0.00 | 0.00 | 0.00 | 99 | 1008.6 |
| 20260905061033 | 60 | 122 | 0.0 | 0.0 | 0.00 | 0.00 | 0.00 | 99 | 1008.8 |
| 20260905060529 | 61 | 122 | 0.0 | 1.0 | 0.00 | 0.00 | 0.00 | 99 | 1008.9 |
| 20260905060025 | 61 | 273 | 0.0 | 2.0 | 0.00 | 0.00 | 0.00 | 99 | 1008.8 |
| 20260905055523 | 61 | 189 | 0.0 | 1.0 | 0.00 | 0.00 | 0.00 | 99 | 1008.8 |
| 20260905055018 | 61 | 162 | 0.0 | 1.0 | 0.00 | 0.00 | 0.00 | 98 | 1008.8 |
| 20260905054514 | 61 | 324 | 0.0 | 0.0 | 0.00 | 0.00 | 0.00 | 98 | 1008.7 |
| 20260905054009 | 61 | 280 | 0.0 | 1.0 | 0.00 | 0.00 | 0.00 | 98 | 1008.9 |
| 20260905053503 | 62 | 324 | 0.0 | 1.0 | 0.00 | 0.00 | 0.00 | 98 | 1009.0 |
| 20260905052959 | 62 | 299 | 0.0 | 1.0 | 0.00 | 0.00 | 0.00 | 98 | 1008.8 |
| 20260905052459 | 62 | 15 | 0.0 | 2.0 | 0.00 | 0.00 | 0.00 | 98 | 1008.8 |
| 20260905051958 | 62 | 357 | 2.0 | 2.0 | 0.00 | 0.00 | 0.00 | 98 | 1008.9 |
| 20260905051454 | 62 | 9 | 0.0 | 2.0 | 0.00 | 0.00 | 0.00 | 98 | 1009.0 |
| 20260905050951 | 62 | 36 | 0.0 | 2.0 | 0.00 | 0.00 | 0.00 | 98 | 1009.1 |
| 20260905050446 | 63 | 1 | 2.0 | 3.0 | 0.00 | 0.00 | 0.00 | 97 | 1009.1 |
| 20260905045942 | 63 | 293 | 1.0 | 2.0 | 0.00 | 0.00 | 0.00 | 97 | 1009.1 |
| 20260905045437 | 63 | 304 | 0.0 | 2.0 | 0.00 | 0.00 | 0.00 | 97 | 1009.1 |
| 20260905044932 | 63 | 319 | 0.0 | 3.0 | 0.00 | 0.00 | 0.00 | 97 | 1009.1 |
| 20260905044422 | 63 | 330 | 0.0 | 1.0 | 0.00 | 0.00 | 0.00 | 97 | 1009.2 |
| 20260905043921 | 63 | 317 | 0.0 | 2.0 | 0.00 | 0.00 | 0.00 | 96 | 1009.1 |
| 20260905043420 | 64 | 8 | 0.0 | 3.0 | 0.00 | 0.00 | 0.00 | 96 | 1009.1 |
| 20260905042915 | 64 | 31 | 2.0 | 3.0 | 0.00 | 0.00 | 0.00 | 96 | 1009.2 |
| 20260905042410 | 63 | 33 | 0.0 | 3.0 | 0.00 | 0.00 | 0.00 | 96 | 1009.1 |
| 20260905041905 | 63 | 312 | 1.0 | 3.0 | 0.00 | 0.00 | 0.00 | 97 | 1009.1 |
| 20260905041401 | 63 | 28 | 2.0 | 4.0 | 0.00 | 0.00 | 0.00 | 97 | 1009.0 |
| 20260905040900 | 63 | 13 | 2.0 | 3.0 | 0.00 | 0.00 | 0.00 | 98 | 1009.2 |
| 20260905040355 | 63 | 36 | 0.0 | 2.0 | 0.00 | 0.00 | 0.00 | 99 | 1009.0 |
| 20260905035854 | 63 | 222 | 0.0 | 2.0 | 0.00 | 0.01 | 0.01 | 99 | 1008.9 |
| 20260905035350 | 63 | 224 | 0.0 | 5.0 | 0.00 | 0.01 | 0.01 | 99 | 1009.0 |
| 20260905034846 | 63 | 94 | 3.0 | 5.0 | 0.00 | 0.01 | 0.01 | 99 | 1009.1 |
| 20260905034342 | 63 | 115 | 0.0 | 2.0 | 0.00 | 0.01 | 0.01 | 99 | 1008.9 |
| 20260905033840 | 62 | 114 | 0.0 | 2.0 | 0.00 | 0.01 | 0.01 | 99 | 1008.9 |
| 20260905033336 | 62 | 147 | 1.0 | 1.0 | 0.00 | 0.01 | 0.01 | 99 | 1008.8 |
| 20260905032835 | 63 | 23 | 0.0 | 1.0 | 0.00 | 0.01 | 0.01 | 99 | 1008.8 |
| 20260905032331 | 63 | 336 | 0.0 | 2.0 | 0.00 | 0.01 | 0.01 | 99 | 1008.9 |
| 20260905031826 | 63 | 261 | 1.0 | 1.0 | 0.00 | 0.01 | 0.01 | 99 | 1009.0 |
| 20260905031321 | 63 | 176 | 2.0 | 2.0 | 0.00 | 0.01 | 0.01 | 99 | 1008.9 |
| 20260905030816 | 63 | 175 | 1.0 | 3.0 | 0.00 | 0.01 | 0.01 | 99 | 1008.9 |
| 20260905030312 | 63 | 205 | 3.0 | 3.0 | 0.00 | 0.01 | 0.01 | 99 | 1008.9 |
| 20260905025811 | 63 | 198 | 1.0 | 3.0 | 0.00 | 0.01 | 0.01 | 99 | 1008.6 |
| 20260905025307 | 64 | 189 | 0.0 | 2.0 | 0.00 | 0.01 | 0.01 | 99 | 1008.6 |
| 20260905024803 | 64 | 235 | 0.0 | 3.0 | 0.00 | 0.01 | 0.01 | 99 | 1008.6 |
| 20260905024258 | 64 | 125 | 0.0 | 1.0 | 0.00 | 0.01 | 0.01 | 99 | 1008.9 |
| 20260905023753 | 64 | 280 | 2.0 | 3.0 | 0.00 | 0.01 | 0.01 | 99 | 1008.7 |
| 20260905023248 | 64 | 280 | 0.0 | 2.0 | 0.00 | 0.01 | 0.01 | 99 | 1008.5 |
| 20260905022747 | 64 | 229 | 0.0 | 2.0 | 0.00 | 0.01 | 0.01 | 99 | 1008.7 |
| 20260905022243 | 64 | 261 | 1.0 | 1.0 | 0.00 | 0.01 | 0.01 | 99 | 1008.7 |
| 20260905021743 | 64 | 355 | 0.0 | 0.0 | 0.00 | 0.01 | 0.01 | 98 | 1008.8 |
| 20260905021237 | 64 | 295 | 0.0 | 0.0 | 0.00 | 0.01 | 0.01 | 98 | 1008.8 |
| 20260905020732 | 65 | 309 | 0.0 | 2.0 | 0.00 | 0.01 | 0.01 | 98 | 1008.9 |
| 20260905020227 | 65 | 240 | 0.0 | 2.0 | 0.00 | 0.01 | 0.01 | 98 | 1008.9 |
| 20260905015726 | 65 | 293 | 1.0 | 2.0 | 0.00 | 0.01 | 0.01 | 98 | 1008.9 |
| 20260905015221 | 65 | 305 | 0.0 | 2.0 | 0.00 | 0.01 | 0.01 | 98 | 1009.1 |
| 20260905014720 | 65 | 234 | 1.0 | 2.0 | 0.00 | 0.01 | 0.01 | 98 | 1009.0 |
| 20260905014216 | 65 | 300 | 0.0 | 1.0 | 0.00 | 0.01 | 0.01 | 98 | 1009.1 |
| 20260905013711 | 65 | 317 | 0.0 | 2.0 | 0.00 | 0.01 | 0.01 | 98 | 1009.2 |
| 20260905013207 | 65 | 50 | 0.0 | 2.0 | 0.00 | 0.01 | 0.01 | 97 | 1009.2 |
| 20260905012702 | 66 | 259 | 0.0 | 2.0 | 0.00 | 0.01 | 0.01 | 97 | 1009.3 |
| 20260905012158 | 66 | 264 | 0.0 | 2.0 | 0.00 | 0.01 | 0.01 | 97 | 1009.1 |
| 20260905011654 | 66 | 273 | 0.0 | 1.0 | 0.00 | 0.01 | 0.01 | 97 | 1009.2 |
| 20260905011150 | 66 | 263 | 0.0 | 2.0 | 0.00 | 0.01 | 0.01 | 97 | 1009.2 |
| 20260905010644 | 66 | 34 | 0.0 | 2.0 | 0.00 | 0.01 | 0.01 | 96 | 1009.3 |
| 20260905010140 | 66 | 242 | 0.0 | 2.0 | 0.00 | 0.01 | 0.01 | 96 | 1009.5 |
| 20260905005636 | 66 | 24 | 0.0 | 3.0 | 0.00 | 0.01 | 0.01 | 96 | 1009.4 |
| 20260905005131 | 67 | 30 | 0.0 | 2.0 | 0.00 | 0.01 | 0.01 | 96 | 1009.3 |
| 20260905004625 | 67 | 305 | 0.0 | 1.0 | 0.00 | 0.01 | 0.01 | 96 | 1009.2 |
| 20260905004120 | 67 | 295 | 1.0 | 2.0 | 0.00 | 0.01 | 0.01 | 96 | 1009.1 |
| 20260905003616 | 67 | 9 | 0.0 | 2.0 | 0.00 | 0.01 | 0.01 | 96 | 1009.4 |
| 20260905003112 | 67 | 299 | 0.0 | 1.0 | 0.00 | 0.01 | 0.01 | 96 | 1009.2 |